[[{"header":{"parameterUnit":"m.s-1","parameterCategory":1,"la1":30.2991,"la2":30.254,"lo1":-89.0895,"lo2":-89.0444,"dy":0.0017,"dx":0.0017,"nx":28,"ny":28,"refTime":"2024-08-16T09:00:00:Z","depth":0,"parameterNumber":2,"parameterNumberName":"U-component_of_WINDS"},"data":[0,0,0,0,0,0,0,0,0,0,0,0,0,0,0,0,0,0,0,0,0,0,0,0,0,0,0,0,0,0,0,0,0,0,0,0,0,0,0,0,0,0,0,0,0,0,0,0,0,0,0,0,0,0,0,0,0,0,1.9708,1.9709,0,1.9752,1.9752,1.9753,1.9725,1.9724,1.9723,1.9721,1.9767,1.9769,1.9771,0,0,0,0,0,0,0,0,0,0,0,0,0,1.9599,1.9601,1.9708,1.9709,1.9709,1.9752,1.9752,1.9753,1.9725,1.9724,1.9722,1.9721,1.9766,1.9769,1.9771,0,0,0,0,0,0,0,0,0,0,0,0,0,1.9645,1.9602,1.9708,1.97,1.97,1.9752,1.9752,1.9753,1.9726,1.9724,1.9722,1.972,1.9765,1.9768,1.9772,1.9833,0,0,1.9783,1.9784,0,0,0,0,0,0,0,0,1.9642,1.9649,1.9701,1.9701,1.9701,1.9731,1.973,1.978,1.9726,1.9716,1.9721,1.9719,1.9756,1.976,1.9773,1.9835,1.9837,1.9783,1.9785,1.9787,1.9788,0,0,0,0,0,0,0,1.9639,1.9647,1.9725,1.9702,1.9702,1.9694,1.9699,1.974,1.9747,1.9717,1.9715,1.972,1.9756,1.977,1.9774,1.9838,1.9783,1.9786,1.9789,1.979,1.9948,1.995,0,0,0,0,0,0,1.9637,1.9644,1.9724,1.9727,1.9666,1.9698,1.9703,1.9723,1.9746,1.9748,1.9722,1.9719,1.9764,1.977,1.9775,1.9845,1.9787,1.979,1.9792,1.9946,1.9949,1.9951,0,0,0,0,0,0,1.9635,1.9644,1.9722,1.9685,1.9694,1.9702,1.9725,1.9725,1.9739,1.975,1.9751,1.9735,1.9763,1.977,1.9818,1.9847,1.9792,1.9795,1.9944,1.9947,1.995,1.9988,0,0,0,0,0,0,1.9632,1.9644,1.9667,1.9686,1.9696,1.9765,1.9727,1.9727,1.9745,1.9741,1.9762,1.9764,1.9762,1.9813,1.9822,1.9851,1.9798,1.9941,1.9945,1.9949,1.9984,1.9992,1.9999,0,0,0,0,0,1.9628,1.9677,1.9669,1.9678,1.9727,1.9767,1.9773,1.9769,1.9748,1.9771,1.9778,1.9763,1.9843,1.9818,1.9828,1.9858,1.994,1.9944,1.9949,1.9981,1.9991,1.9999,0,0,0,0,0,0,1.9663,1.968,1.967,1.9728,1.9746,1.9762,1.9791,1.978,1.9805,1.9801,1.9796,1.9801,1.985,1.9859,1.9831,1.9917,1.9887,1.9894,1.9909,1.9918,1.9925,1.9921,1.9801,0,0,0,0,0,1.9677,1.9709,1.9722,1.9771,1.978,1.9784,1.9802,1.9797,1.9816,1.9824,1.9834,1.9853,1.9881,1.9901,1.9928,1.9986,1.9989,2.0012,2.0019,2.0025,2.003,2.0058,2.0068,1.9966,1.9966,1.9966,0,0,1.9708,1.972,1.9741,1.9778,1.9792,1.9823,1.9791,1.9827,1.9849,1.9829,1.9874,1.9882,1.9902,1.9955,1.9978,1.9964,2.0059,2.0031,2.0036,2.0038,2.0064,2.0074,2.0082,1.9969,1.9969,1.9968,0,0,1.9778,1.9792,1.9832,1.9846,1.9867,1.9869,1.9878,1.9896,1.99,1.9945,1.9929,1.9957,2.0007,2.0021,2.0035,2.0108,2.0094,2.0117,2.0154,2.0182,2.019,2.0197,2.022,2.0229,2.0123,2.0123,2.0123,0,1.9812,1.9859,1.9855,1.989,1.9906,1.9889,1.9929,1.9943,1.9971,1.9982,1.9966,2.0026,2.0039,2.0093,2.011,2.0123,2.0132,2.0114,2.0189,2.0196,2.0203,2.0224,2.0234,2.0125,2.0125,2.0125,2.0124,0,1.9899,1.9932,1.9963,1.9989,2.0008,2.0046,2.0046,2.0067,2.006,2.0064,2.0108,2.0122,2.0151,2.0164,2.0159,2.0216,2.0206,2.019,2.016,2.0215,2.0235,2.0244,2.0129,2.0128,2.0127,2.0126,0,0,1.9994,2.0015,2.0026,2.0037,2.0057,2.0082,2.0118,2.0145,2.0161,2.0181,2.021,2.0252,2.0236,2.0251,2.0248,2.0272,2.0325,2.0252,2.0252,2.0263,2.0385,2.0396,2.0406,2.0317,2.0318,2.032,2.0383,0,2.0063,2.0125,2.0121,2.0179,2.0208,2.0191,2.0222,2.0237,2.0241,2.0265,2.0269,2.0298,2.0276,2.0285,2.0308,2.0314,2.0349,2.0309,2.0342,2.0343,2.0335,2.0417,2.0429,2.0488,2.0391,2.0392,2.0393,0,2.0152,2.0173,2.0234,2.0247,2.0258,2.0287,2.0309,2.0333,2.0349,2.035,2.0366,2.0358,2.0393,2.0363,2.041,2.0383,2.0396,2.04,2.0402,2.0404,2.037,2.0418,2.0507,2.0514,2.0407,2.0405,2.0405,0,2.021,2.0255,2.0296,2.0305,2.0323,2.0342,2.035,2.0364,2.038,2.04,2.0409,2.0434,2.0447,2.0466,2.0463,2.0442,2.051,2.0481,2.051,2.051,2.0523,2.0522,2.0613,2.0536,2.0536,2.0536,2.0535,0,2.0287,2.0324,2.0322,2.0347,2.0387,2.0382,2.0422,2.0428,2.044,2.0465,2.0453,2.0476,2.0473,2.0496,2.0495,2.0532,2.0539,2.0539,2.0538,2.0539,2.0539,2.0546,2.0541,2.0538,2.0537,2.0537,2.0537,0,2.0359,2.0359,2.0402,2.0414,2.0418,2.0447,2.0456,2.0479,2.0482,2.0513,2.052,2.0524,2.055,2.055,2.0581,2.058,2.0625,2.062,2.0619,2.0617,2.0645,2.0642,2.0742,2.0754,2.0672,2.0672,2.0673,0,2.0406,2.0434,2.0448,2.0463,2.0472,2.0498,2.0513,2.0508,2.0524,2.0543,2.0564,2.0589,2.0609,2.0652,2.0657,2.068,2.0674,2.0708,2.0677,2.0676,2.0671,2.0668,2.067,2.0713,2.0714,2.0715,2.0715,0,2.0489,2.0487,2.0509,2.0531,2.0549,2.0566,2.0582,2.0595,2.0592,2.0611,2.0637,2.0652,2.0683,2.0707,2.0729,2.0736,2.0725,2.0725,2.0732,2.0732,2.0729,2.0728,2.0632,2.0722,2.0721,2.0721,2.0721,2.072,2.0548,2.0571,2.0583,2.0608,2.0619,2.0633,2.0654,2.0658,2.068,2.0704,2.07,2.0729,2.0742,2.0769,2.0779,2.0801,2.0789,2.08,2.0803,2.0805,2.0807,2.0728,2.0805,2.0805,2.0805,2.0804,2.0804,0,2.0628,2.0635,2.0657,2.0678,2.0697,2.0684,2.07,2.0716,2.0742,2.0755,2.0774,2.0803,2.0826,2.0832,2.0854,2.087,2.0865,2.0876,2.0874,2.0875,2.0818,2.0808,2.0879,2.0879,2.0879,2.0879,2.0879,2.0879,2.0672,2.0708,2.0708,2.0749,2.0755,2.0783,2.0792,2.0805,2.0815,2.0847,2.0866,2.087,2.0879,2.0901,2.0921,2.0923,2.093,2.0942,2.0941,2.0887,2.0879,2.0872,2.0863,2.0945,2.0945,2.0996,2.0997,2.0997]},{"header":{"parameterUnit":"m.s-1","parameterCategory":1,"la1":30.2991,"la2":30.254,"lo1":-89.0895,"lo2":-89.0444,"dy":0.0017,"dx":0.0017,"nx":28,"ny":28,"refTime":"2024-08-16T09:00:00:Z","depth":0,"parameterNumber":3,"parameterNumberName":"V-component_of_WINDS"},"data":[0,0,0,0,0,0,0,0,0,0,0,0,0,0,0,0,0,0,0,0,0,0,0,0,0,0,0,0,0,0,0,0,0,0,0,0,0,0,0,0,0,0,0,0,0,0,0,0,0,0,0,0,0,0,0,0,0,0,3.4839,3.4839,0,3.4878,3.4879,3.4879,3.4833,3.4832,3.483,3.4828,3.4865,3.4868,3.487,0,0,0,0,0,0,0,0,0,0,0,0,0,3.472,3.4723,3.4839,3.4839,3.484,3.4878,3.4879,3.4879,3.4834,3.4832,3.483,3.4828,3.4864,3.4867,3.4871,0,0,0,0,0,0,0,0,0,0,0,0,0,3.4767,3.4724,3.4839,3.4822,3.4821,3.4878,3.4879,3.4879,3.4834,3.4832,3.4829,3.4827,3.4863,3.4867,3.4871,3.4946,0,0,3.4883,3.4884,0,0,0,0,0,0,0,0,3.4764,3.4771,3.4824,3.4823,3.4822,3.4848,3.485,3.4901,3.4835,3.4829,3.4828,3.4825,3.4862,3.4865,3.4878,3.4947,3.4949,3.4883,3.4885,3.4887,3.4888,0,0,0,0,0,0,0,3.4761,3.4769,3.4854,3.4825,3.4824,3.4811,3.4815,3.486,3.4859,3.4829,3.4826,3.4832,3.486,3.4875,3.4879,3.4949,3.4883,3.4886,3.4889,3.489,3.5079,3.5081,0,0,0,0,0,0,3.476,3.4767,3.4853,3.4856,3.4786,3.4815,3.4819,3.4842,3.4858,3.4858,3.4834,3.4829,3.4869,3.4874,3.488,3.4966,3.4887,3.4891,3.4893,3.5076,3.5079,3.5082,0,0,0,0,0,0,3.4758,3.4769,3.4852,3.481,3.482,3.482,3.4846,3.4845,3.4859,3.4862,3.4861,3.4849,3.4867,3.4874,3.4929,3.4967,3.4892,3.4896,3.5073,3.5077,3.5081,3.5142,0,0,0,0,0,0,3.4755,3.4768,3.4798,3.4811,3.4822,3.4902,3.4849,3.4847,3.4866,3.486,3.4875,3.4875,3.4866,3.4924,3.4933,3.4971,3.4899,3.507,3.5075,3.508,3.5136,3.5147,3.5157,0,0,0,0,0,3.4751,3.4813,3.4799,3.481,3.486,3.4904,3.491,3.4899,3.4869,3.4898,3.4899,3.4875,3.4962,3.493,3.494,3.498,3.5067,3.5073,3.5079,3.5132,3.5145,3.5156,0,0,0,0,0,0,3.4803,3.4815,3.48,3.4868,3.4886,3.4896,3.4933,3.4914,3.494,3.4933,3.4917,3.4921,3.4979,3.4985,3.4949,3.5051,3.5009,3.5018,3.5045,3.5058,3.5068,3.5065,3.4902,0,0,0,0,0,3.4823,3.4859,3.4867,3.4927,3.4936,3.4933,3.4952,3.4942,3.4959,3.4966,3.4971,3.4987,3.5018,3.5039,3.5067,3.5137,3.5138,3.5169,3.5179,3.5188,3.5195,3.523,3.5243,3.5102,3.5102,3.5102,0,0,3.4863,3.4874,3.4898,3.4937,3.495,3.4986,3.494,3.4981,3.5007,3.4971,3.5023,3.5028,3.5045,3.5107,3.5135,3.5113,3.5234,3.5195,3.5202,3.5205,3.5237,3.5251,3.5263,3.5107,3.5106,3.5105,0,0,3.4956,3.4969,3.5019,3.5032,3.5051,3.5048,3.5061,3.5074,3.5076,3.5128,3.5101,3.5132,3.5185,3.5198,3.5211,3.5307,3.5284,3.5316,3.537,3.5404,3.5415,3.5425,3.5457,3.5469,3.5324,3.5324,3.5324,0,3.5004,3.5059,3.5047,3.509,3.5107,3.5077,3.5126,3.5139,3.5166,3.5178,3.5154,3.522,3.5229,3.5293,3.5316,3.5328,3.534,3.5314,3.5415,3.5424,3.5433,3.5464,3.5476,3.5327,3.5327,3.5327,3.5326,0,3.5116,3.5155,3.5193,3.522,3.5241,3.5288,3.528,3.5303,3.5291,3.529,3.5342,3.5352,3.5381,3.5395,3.5384,3.5457,3.5443,3.5418,3.5375,3.545,3.5479,3.5491,3.5333,3.5331,3.533,3.5329,0,0,3.5244,3.5263,3.5277,3.5288,3.5306,3.5335,3.5378,3.5407,3.5426,3.5445,3.548,3.5526,3.5502,3.5517,3.5506,3.5536,3.5609,3.5507,3.5507,3.5524,3.5688,3.5706,3.572,3.5594,3.5597,3.5598,3.5686,0,3.5335,3.5412,3.5401,3.5474,3.5508,3.5479,3.5516,3.5531,3.5531,3.5558,3.5558,3.559,3.5556,3.5565,3.5594,3.5594,3.5641,3.5588,3.5625,3.5627,3.5621,3.5735,3.5755,3.5838,3.5697,3.5699,3.57,0,3.5453,3.5476,3.5553,3.5564,3.5578,3.5612,3.5636,3.5664,3.5678,3.5676,3.5693,3.5676,3.5717,3.5674,3.573,3.5694,3.5708,3.571,3.5713,3.5715,3.5668,3.5739,3.5864,3.5876,3.5718,3.5717,3.5715,0,3.5536,3.5587,3.5639,3.5649,3.5664,3.5688,3.5695,3.5707,3.5725,3.5746,3.5756,3.5782,3.5796,3.5815,3.5805,3.5775,3.5862,3.5819,3.586,3.586,3.5879,3.5878,3.6006,3.589,3.589,3.589,3.589,0,3.5639,3.5686,3.5676,3.5708,3.5759,3.5745,3.5796,3.5799,3.581,3.5841,3.5817,3.5846,3.5831,3.5859,3.5851,3.5897,3.5904,3.5902,3.5899,3.5904,3.5904,3.5912,3.5906,3.5893,3.5892,3.5892,3.5891,0,3.574,3.5736,3.579,3.5799,3.5802,3.5839,3.5846,3.5875,3.5873,3.5911,3.5919,3.5916,3.5946,3.5938,3.5972,3.5966,3.6024,3.6015,3.602,3.6017,3.6058,3.6054,3.6195,3.6212,3.6087,3.6088,3.6089,0,3.5806,3.5842,3.5854,3.5873,3.5882,3.5913,3.5931,3.5918,3.5937,3.5955,3.5981,3.601,3.6032,3.6082,3.6082,3.6107,3.6097,3.6145,3.61,3.6103,3.6096,3.6093,3.6096,3.6153,3.6155,3.6156,3.6157,0,3.5922,3.5917,3.5944,3.597,3.5991,3.6011,3.6028,3.6044,3.6032,3.6055,3.6086,3.6103,3.6137,3.6165,3.6188,3.6193,3.6173,3.6171,3.6181,3.6186,3.6186,3.6185,3.6042,3.6167,3.6166,3.6166,3.6165,3.6165,3.6006,3.6036,3.6049,3.6079,3.609,3.6106,3.6133,3.6134,3.616,3.6187,3.6178,3.6213,3.6225,3.6253,3.6261,3.6288,3.6269,3.6285,3.6289,3.6293,3.6297,3.6183,3.6292,3.6292,3.6291,3.6291,3.6291,0,3.612,3.6127,3.6154,3.6179,3.6202,3.6181,3.6198,3.6218,3.625,3.6263,3.6285,3.632,3.6347,3.6348,3.6373,3.6394,3.6385,3.6401,3.6398,3.6399,3.6313,3.6301,3.6407,3.6407,3.6407,3.6407,3.6407,3.6407,3.6182,3.623,3.6227,3.628,3.6285,3.632,3.6332,3.6346,3.6356,3.6396,3.6418,3.6419,3.6427,3.6452,3.6475,3.6474,3.6484,3.6503,3.6499,3.6417,3.6406,3.6395,3.6383,3.6505,3.6506,3.6583,3.6584,3.6584]}]]